Hibbing, MN

11:37 PM CDT on July 22, 2017 (GMT -0500)
Chisholm-hibbing

Weather History for KHIB - December, 2011

Change the Weather History Date:

Friday, December 9, 2011

  Actual Average Record
Temperature  
Mean Temperature 0 °F -  
Max Temperature 10 °F 22 °F 46 °F (1990)
Min Temperature -9 °F 4 °F -27 °F (1983)
Degree Days  
Heating Degree Days 64    
Moisture  
Dew Point -7 °F    
Average Humidity 69    
Maximum Humidity 83    
Minimum Humidity 44    
Precipitation  
Precipitation 0.00 in - - ()
Sea Level Pressure  
Sea Level Pressure 30.25 in    
Wind  
Wind Speed 5 mph (West)    
Max Wind Speed 14 mph    
Max Gust Speed 18 mph    
Visibility 10 miles    
Events      
Averages and records for this station are not official NWS values.
T = Trace of Precipitation, MM = Missing Value Source: NWS Daily Summary

Daily Weather History Graph

Daily Weather History Graph

Search for Another Location

Airport or City:

Trip Planner

Search our weather history database for the weather conditions in past years. The results will help you decide how hot, cold, wet, or windy it might be!

Date:

Astronomy

Dec. 09, 2011 Rise Set
Actual Time 7:46 AM CST 4:20 PM CST
Civil Twilight 7:10 AM CST 4:56 PM CST
Nautical Twilight 6:32 AM CST 5:35 PM CST
Astronomical Twilight 5:54 AM CST 6:12 PM CST
Moon 3:43 PM CST (12/9) 6:55 AM CST (12/9)
Length of Visible Light 9h 45m
Length of Day
8h 34m
Waxing Gibbous, 99% of the Moon is Illuminated
Dec 9
Waxing Gibbous
Dec 10
Full
Dec 17
Last Quarter
Dec 24
New
Jan 1
First Quarter

Hourly Weather History & Observations

Time (CST) Temp. Windchill Dew Point Humidity Pressure Visibility Wind Dir Wind Speed Gust Speed Precip Events Conditions
12:53 AM 3.9 °F -6.9 °F -2.9 °F 73% 30.12 in 10.0 mi West 5.8 mph - N/A   Clear
1:53 AM 1.0 °F -6.7 °F -5.1 °F 75% 30.14 in 10.0 mi West 3.5 mph - N/A   Clear
2:53 AM -0.0 °F -11.6 °F -5.1 °F 79% 30.15 in 10.0 mi West 5.8 mph - N/A   Clear
3:53 AM -0.0 °F -9.9 °F -6.0 °F 76% 30.17 in 10.0 mi West 4.6 mph - N/A   Clear
4:53 AM 1.9 °F -10.6 °F -5.1 °F 72% 30.17 in 10.0 mi West 6.9 mph - N/A   Clear
5:53 AM 1.0 °F -8.7 °F -5.1 °F 75% 30.18 in 10.0 mi West 4.6 mph - N/A   Clear
6:53 AM -0.9 °F -8.9 °F -6.0 °F 79% 30.21 in 10.0 mi West 3.5 mph - N/A   Clear
7:53 AM -2.0 °F -10.1 °F -7.1 °F 79% 30.23 in 10.0 mi West 3.5 mph - N/A   Clear
8:53 AM 1.9 °F -10.6 °F -5.1 °F 72% 30.24 in 10.0 mi West 6.9 mph - N/A   Clear
9:53 AM 3.9 °F -9.4 °F -4.0 °F 70% 30.26 in 10.0 mi WNW 8.1 mph - N/A   Clear
10:53 AM 6.1 °F -9.5 °F -4.0 °F 63% 30.27 in 10.0 mi WNW 11.5 mph 16.1 mph N/A   Clear
11:53 AM 8.1 °F -4.3 °F -2.9 °F 61% 30.27 in 10.0 mi WNW 8.1 mph - N/A   Clear
12:53 PM 9.0 °F -7.3 °F -6.0 °F 51% 30.26 in 10.0 mi West 13.8 mph 18.4 mph N/A   Clear
1:53 PM 10.0 °F 0.4 °F -5.1 °F 51% 30.27 in 10.0 mi West 5.8 mph - N/A   Clear
2:53 PM 10.0 °F -3.7 °F -8.0 °F 44% 30.27 in 10.0 mi WNW 10.4 mph 18.4 mph N/A   Clear
3:53 PM 8.1 °F -3.2 °F -6.0 °F 53% 30.29 in 10.0 mi West 6.9 mph - N/A   Clear
4:53 PM 7.0 °F -1.7 °F -7.1 °F 53% 30.30 in 10.0 mi West 4.6 mph - N/A   Clear
5:53 PM 5.0 °F -2.1 °F -7.1 °F 58% 30.31 in 10.0 mi West 3.5 mph - N/A   Clear
6:53 PM -2.0 °F - -9.0 °F 72% 30.33 in 10.0 mi Calm Calm - N/A   Clear
7:53 PM -5.1 °F - -9.0 °F 83% 30.34 in 10.0 mi Calm Calm - N/A   Clear
8:53 PM -2.0 °F -10.1 °F -8.0 °F 76% 30.32 in 10.0 mi South 3.5 mph - N/A   Clear
9:53 PM -5.1 °F -13.6 °F -9.9 °F 80% 30.32 in 10.0 mi South 3.5 mph - N/A   Clear
10:53 PM -9.0 °F - -14.1 °F 79% 30.31 in 10.0 mi Calm Calm - N/A   Clear
11:53 PM -8.0 °F - -11.9 °F 83% 30.30 in 10.0 mi Calm Calm - N/A   Clear